星链-30427 (STARLINK-30427 )

导读

STARLINK-30427是美国SpaceX公司星链星座计划下的一颗低轨互联网卫星,于2023年9月16日发射。它是星链大规模卫星组网的组成部分,运行在近地轨道,旨在为全球尤其是偏远地区提供低延迟宽带互联网服务,助力实现全域网络覆盖,丰富了低轨卫星通信资源,推动全球互联接入能力提升。作为星链星座的一员,它延续了星链星座对高速全球化网络服务的布局,是美国商业航天发展低轨通信网络的典型产物。

基本信息
目录编号:
57865
目录名称:
STARLINK-30427
国际标识:
2023-144B
轨道中心:
EARTH
卫星名称:
星链-30427
卫星全名:
星链-30427 (STARLINK-30427 )
卫星状态:
在轨 (已飞行1084 天)
发射日期:
2023-09-16 UTC
国别 :
美国 (US)
星等 :
--
轨道信息
数据来源 国际轨道数据
星历时间: 2026-09-04T00:54:39+0800
22小时前
查看轨道信息
半长轴: 6861.255km
偏心率: 0.0000328
轨道倾角: 43.001°
近地点辐角 222.952°
升交点赤经 359.772°
平近点角 137.131°
近地点: 482.892km
远地点: 483.344km
周期: 94.268分钟
每日圈数: 15.275573
详细信息
固有亮度:
5
最大亮度:
0.3
卫星平台:
Starlink v2.0 mini
覆盖范围:
全球
运营商:
太空探索技术公司
运营商所在国:
美国
制造商(研发单位):
太空探索技术公司
制造商所在国:
美国
使用方式:
暂无
卫星简介
星链(Starlink)计划是由太空探索技术公司(SpaceX)提出的一个巨型低轨卫星互联网星座项目,计划在2019年至2024年间在太空搭建由约1.2万颗卫星组成的“星链”网络,其中1584颗将部署在地球上空550千米处的近地轨道,并从2020年开始工作。该卫星仍在工作。
2D轨道图
3D轨道图
轨道高度分析图
轨道倾角分析图
轨道综合分析图
查看轨道综合分析图
交会数据列表
事件ID 空间交会对象 最接近时刻(TCA) 交会距离 交会风险概率(CRP) 交会风险指数(CRI) 操作
CDM_260906-151805-786506-696321
2026-09-06T
15:18:39+0000
0.259 km
中距离
4.76893E-4 高风险 0.89
CDM_260906-134405-786506-696321
2026-09-06T
13:44:30+0000
1.637 km
极远距离
3.338237E-6 低风险 0.45
CDM_260906-165205-786506-696321
2026-09-06T
16:52:48+0000
1.710 km
极远距离
2.933764E-6 低风险 0.44
CDM_260828-111805-786506-632521
2026-08-28T
11:18:52+0000
2.484 km
极远距离
1.061407E-6 低风险 0.36